Date,TemperatureHighF,TemperatureAvgF,TemperatureLowF,DewpointHighF,DewpointAvgF,DewpointLowF,HumidityHigh,HumidityAvg,HumidityLow,PressureMaxIn,PressureMinIn,WindSpeedMaxMPH,WindSpeedAvgMPH,GustSpeedMaxMPH,PrecipitationSumIn
2014-2-1,75.0,68.2,65.0,-99.9,-99.9,-99.9,0,0,100,0.00,40.00,0,-999,0,0.00
2014-2-2,65.0,41.9,36.0,-99.9,-99.9,-99.9,0,0,100,0.00,40.00,0,-999,0,0.00
2014-2-3,41.0,38.2,32.0,-99.9,-99.9,-99.9,0,0,100,0.00,40.00,0,-999,0,0.00
2014-2-4,63.0,47.9,40.0,-99.9,-99.9,-99.9,0,0,100,0.00,40.00,0,-999,0,0.00
2014-2-5,46.0,39.1,30.0,-99.9,-99.9,-99.9,0,0,100,0.00,40.00,0,-999,0,0.00
2014-2-6,30.0,28.1,25.0,-99.9,-99.9,-99.9,0,0,100,0.00,40.00,0,-999,0,0.00
2014-2-7,35.0,29.4,27.0,-99.9,-99.9,-99.9,0,0,100,0.00,40.00,0,-999,0,0.00
2014-2-8,59.0,42.5,35.0,-99.9,-99.9,-99.9,0,0,100,0.00,40.00,0,-999,0,0.00
2014-2-9,65.0,52.5,40.0,-99.9,-99.9,-99.9,0,0,100,0.00,40.00,0,-999,0,0.00
2014-2-10,60.0,45.3,35.0,-99.9,-99.9,-99.9,0,0,100,0.00,40.00,0,-999,0,0.00
2014-2-11,34.0,32.5,32.0,-99.9,-99.9,-99.9,0,0,100,0.00,40.00,0,-999,0,0.00
2014-2-12,53.0,40.0,32.0,-99.9,-99.9,-99.9,0,0,100,0.00,40.00,0,-999,0,0.00
2014-2-13,66.0,44.8,29.0,-99.9,-99.9,-99.9,0,0,100,0.00,40.00,0,-999,0,0.00
2014-2-14,81.0,59.5,41.0,-99.9,-99.9,-99.9,0,0,100,0.00,40.00,0,-999,0,0.00
2014-2-15,74.0,59.8,45.0,-99.9,-99.9,-99.9,0,0,100,0.00,40.00,0,-999,0,0.00
2014-2-16,73.0,64.1,58.0,-99.9,-99.9,-99.9,0,0,100,0.00,40.00,0,-999,0,0.00
2014-2-17,76.0,66.9,63.0,-99.9,-99.9,-99.9,0,0,100,0.00,40.00,0,-999,0,0.00
2014-2-18,75.0,66.6,60.0,-99.9,-99.9,-99.9,0,0,100,0.00,40.00,0,-999,0,0.00
2014-2-19,80.0,65.8,59.0,-99.9,-99.9,-99.9,0,0,100,0.00,40.00,0,-999,0,0.00
2014-2-20,79.0,67.0,56.0,-99.9,-99.9,-99.9,0,0,100,0.00,40.00,0,-999,0,0.00
2014-2-21,69.0,55.9,43.0,-99.9,-99.9,-99.9,0,0,100,0.00,40.00,0,-999,0,0.00
2014-2-22,69.0,55.9,40.0,-99.9,-99.9,-99.9,0,0,100,0.00,40.00,0,-999,0,0.00
2014-2-23,79.0,68.0,62.0,-99.9,-99.9,-99.9,0,0,100,0.00,40.00,0,-999,0,0.00
2014-2-24,73.0,61.6,54.0,-99.9,-99.9,-99.9,0,0,100,0.00,40.00,0,-999,0,0.00
2014-2-25,76.0,66.0,51.0,-99.9,-99.9,-99.9,0,0,100,0.00,40.00,0,-999,0,0.00
2014-2-26,51.0,39.1,32.0,-99.9,-99.9,-99.9,0,0,100,0.00,40.00,0,-999,0,0.00
2014-2-27,56.0,39.1,29.0,-99.9,-99.9,-99.9,0,0,100,0.00,40.00,0,-999,0,0.00
2014-2-28,76.0,53.4,43.0,-99.9,-99.9,-99.9,0,0,100,0.00,40.00,0,-999,0,0.00